• In Netherlands
  • List of Countries
  • For 7 days
  • Water Temperature
  • Satellite Maps
  • Weather Map
  • Weather Widgets
  • user-avatar
    Login

    Hourly Weather Mazyr

    Today, 25 March, Saturday

    Time Temperature Precipitation Wind Pressure Humidity
    00:00 +1°C° 0 mm 2 mps 752 mmHg 90%
    01:00 +1°C° 0 mm 2 mps 753 mmHg 90%
    02:00 -1°C° 0 mm 2 mps 752 mmHg 92%
    03:00 -1°C° 0 mm 2 mps 752 mmHg 91%
    04:00 -2°C° 0 mm 2 mps 752 mmHg 90%
    05:00 -2°C° 0 mm 2 mps 752 mmHg 90%
    06:00 +1°C° 0 mm 1 mps 752 mmHg 84%
    07:00 +1°C° 0 mm 1 mps 752 mmHg 78%
    08:00 +2°C° 0 mm 1 mps 752 mmHg 71%
    09:00 +3°C° 0 mm 1 mps 752 mmHg 65%
    10:00 +4°C° 0 mm 1 mps 752 mmHg 59%
    11:00 +5°C° 0 mm 2 mps 751 mmHg 53%
    12:00 +5°C° 0.1 mm 2 mps 751 mmHg 56%
    13:00 +5°C° 0.1 mm 2 mps 750 mmHg 59%
    14:00 +4°C° 0.1 mm 3 mps 749 mmHg 61%
    15:00 +5°C° 0.2 mm 2 mps 748 mmHg 66%
    16:00 +4°C° 0.2 mm 2 mps 748 mmHg 70%
    17:00 +4°C° 0.2 mm 2 mps 747 mmHg 74%
    18:00 +4°C° 0.2 mm 1 mps 747 mmHg 77%
    19:00 +4°C° 0.2 mm 1 mps 746 mmHg 81%
    20:00 +3°C° 0.2 mm 1 mps 746 mmHg 84%
    21:00 +3°C° 0.1 mm 1 mps 745 mmHg 86%
    22:00 +2°C° 0.1 mm 1 mps 745 mmHg 87%
    23:00 +2°C° 0.1 mm 1 mps 745 mmHg 88%

    Tomorrow, 26 March, Sunday

    Time Temperature Precipitation Wind Pressure Humidity
    00:00 +2°C° 0 mm 1 mps 745 mmHg 89%
    01:00 +2°C° 0 mm 1 mps 745 mmHg 91%
    02:00 +1°C° 0 mm 1 mps 745 mmHg 92%
    03:00 +1°C° 0 mm 1 mps 746 mmHg 93%
    04:00 +1°C° 0 mm 1 mps 746 mmHg 95%
    05:00 -2°C° 0 mm 2 mps 746 mmHg 96%
    06:00 -1°C° 0 mm 2 mps 747 mmHg 93%
    07:00 +1°C° 0 mm 2 mps 748 mmHg 90%
    08:00 +1°C° 0 mm 2 mps 748 mmHg 87%
    09:00 +2°C° 0 mm 2 mps 749 mmHg 82%
    10:00 +3°C° 0 mm 2 mps 749 mmHg 76%
    11:00 +4°C° 0 mm 2 mps 750 mmHg 70%
    12:00 +5°C° 0.1 mm 2 mps 750 mmHg 67%
    13:00 +5°C° 0.1 mm 2 mps 750 mmHg 65%
    14:00 +7°C° 0.1 mm 1 mps 751 mmHg 63%
    15:00 +6°C° 0 mm 1 mps 751 mmHg 66%
    16:00 +6°C° 0 mm 1 mps 751 mmHg 69%
    17:00 +6°C° 0 mm 1 mps 751 mmHg 72%
    18:00 +5°C° 0 mm 1 mps 751 mmHg 77%
    19:00 +3°C° 0 mm 1 mps 751 mmHg 83%
    20:00 +1°C° 0 mm 2 mps 751 mmHg 89%
    21:00 +1°C° 0 mm 2 mps 751 mmHg 90%
    22:00 +1°C° 0 mm 2 mps 751 mmHg 92%
    23:00 -1°C° 0 mm 2 mps 751 mmHg 93%

    Day after tomorrow, 27 March, Monday

    Time Temperature Precipitation Wind Pressure Humidity
    00:00 0°C° 0 mm 3 mps 750 mmHg 93%
    01:00 0°C° 0 mm 3 mps 750 mmHg 93%
    02:00 -1°C° 0 mm 4 mps 749 mmHg 93%
    03:00 0°C° 0.1 mm 4 mps 748 mmHg 91%
    04:00 0°C° 0.1 mm 5 mps 748 mmHg 89%
    05:00 0°C° 0.1 mm 5 mps 747 mmHg 88%
    06:00 0°C° 0.1 mm 5 mps 747 mmHg 88%
    07:00 0°C° 0.1 mm 5 mps 747 mmHg 88%
    08:00 +1°C° 0.1 mm 5 mps 747 mmHg 88%
    09:00 +2°C° 0 mm 5 mps 747 mmHg 83%
    10:00 +2°C° 0 mm 5 mps 748 mmHg 78%
    11:00 +3°C° 0 mm 5 mps 748 mmHg 74%
    12:00 +5°C° 0 mm 5 mps 748 mmHg 68%
    13:00 +5°C° 0 mm 5 mps 748 mmHg 63%
    14:00 +6°C° 0 mm 5 mps 748 mmHg 57%
    15:00 +6°C° 0 mm 5 mps 749 mmHg 60%
    16:00 +5°C° 0 mm 4 mps 749 mmHg 63%
    17:00 +5°C° 0 mm 3 mps 749 mmHg 65%
    18:00 +4°C° 0 mm 3 mps 749 mmHg 72%
    19:00 +3°C° 0 mm 3 mps 749 mmHg 78%
    20:00 +3°C° 0 mm 2 mps 750 mmHg 85%
    21:00 +1°C° 0 mm 3 mps 749 mmHg 87%
    22:00 +1°C° 0 mm 3 mps 749 mmHg 89%
    23:00 +1°C° 0 mm 3 mps 749 mmHg 90%

    28 March, Tuesday

    Time Temperature Precipitation Wind Pressure Humidity
    00:00 +1°C° 0 mm 3 mps 749 mmHg 90%
    01:00 +1°C° 0 mm 4 mps 748 mmHg 89%
    02:00 +1°C° 0 mm 4 mps 747 mmHg 88%
    03:00 +1°C° 0 mm 5 mps 747 mmHg 87%
    04:00 +2°C° 0 mm 5 mps 746 mmHg 85%
    05:00 +2°C° 0 mm 5 mps 746 mmHg 84%
    06:00 +3°C° 0 mm 6 mps 746 mmHg 84%
    07:00 +3°C° 0 mm 6 mps 746 mmHg 84%
    08:00 +4°C° 0 mm 6 mps 746 mmHg 85%
    09:00 +4°C° 0 mm 6 mps 746 mmHg 84%
    10:00 +5°C° 0 mm 5 mps 746 mmHg 82%
    11:00 +6°C° 0 mm 5 mps 746 mmHg 81%
    12:00 +6°C° 0 mm 5 mps 746 mmHg 79%
    13:00 +7°C° 0 mm 6 mps 746 mmHg 76%
    14:00 +7°C° 0 mm 6 mps 747 mmHg 73%
    15:00 +7°C° 0 mm 5 mps 747 mmHg 74%
    16:00 +7°C° 0 mm 5 mps 747 mmHg 74%
    17:00 +6°C° 0 mm 5 mps 747 mmHg 74%
    18:00 +6°C° 0 mm 4 mps 748 mmHg 76%
    19:00 +5°C° 0 mm 4 mps 748 mmHg 77%
    20:00 +5°C° 0 mm 3 mps 749 mmHg 79%
    21:00 +4°C° 0 mm 3 mps 749 mmHg 83%
    22:00 +4°C° 0 mm 2 mps 750 mmHg 87%
    23:00 +3°C° 0 mm 2 mps 750 mmHg 91%

    29 March, Wednesday

    Time Temperature Precipitation Wind Pressure Humidity
    00:00 +3°C° 0 mm 2 mps 750 mmHg 93%
    01:00 +3°C° 0 mm 1 mps 750 mmHg 94%
    02:00 +2°C° 0 mm 1 mps 750 mmHg 95%
    03:00 +2°C° 0 mm 1 mps 750 mmHg 94%
    04:00 +2°C° 0 mm 1 mps 750 mmHg 93%
    05:00 +1°C° 0 mm 1 mps 750 mmHg 92%
    06:00 +2°C° 0 mm 1 mps 750 mmHg 88%
    07:00 +4°C° 0 mm 1 mps 750 mmHg 83%
    08:00 +5°C° 0 mm 1 mps 750 mmHg 79%
    09:00 +7°C° 0 mm 1 mps 749 mmHg 77%
    10:00 +7°C° 0 mm 2 mps 749 mmHg 74%
    11:00 +9°C° 0 mm 2 mps 749 mmHg 72%
    12:00 +10°C° 0 mm 3 mps 748 mmHg 67%
    13:00 +12°C° 0 mm 3 mps 747 mmHg 62%
    14:00 +13°C° 0 mm 4 mps 746 mmHg 58%
    15:00 +13°C° 0 mm 4 mps 746 mmHg 62%
    16:00 +12°C° 0 mm 3 mps 745 mmHg 66%
    17:00 +12°C° 0 mm 3 mps 745 mmHg 70%
    18:00 +10°C° 0 mm 3 mps 745 mmHg 74%
    19:00 +9°C° 0 mm 3 mps 745 mmHg 78%
    20:00 +8°C° 0 mm 3 mps 745 mmHg 81%
    21:00 +8°C° 0 mm 3 mps 745 mmHg 84%
    22:00 +8°C° 0 mm 3 mps 745 mmHg 86%
    23:00 +7°C° 0 mm 3 mps 745 mmHg 88%

    30 March, Thursday

    Time Temperature Precipitation Wind Pressure Humidity
    00:00 +6°C° 0 mm 4 mps 746 mmHg 89%
    01:00 +6°C° 0 mm 4 mps 746 mmHg 89%
    02:00 +6°C° 0 mm 4 mps 746 mmHg 89%
    03:00 +5°C° 0 mm 4 mps 746 mmHg 88%
    04:00 +5°C° 0 mm 4 mps 746 mmHg 87%
    05:00 +5°C° 0 mm 4 mps 746 mmHg 86%
    06:00 +5°C° 0 mm 4 mps 747 mmHg 84%
    07:00 +5°C° 0 mm 4 mps 748 mmHg 82%
    08:00 +5°C° 0 mm 5 mps 748 mmHg 80%
    09:00 +5°C° 0 mm 5 mps 749 mmHg 78%
    10:00 +5°C° 0 mm 5 mps 749 mmHg 75%
    11:00 +5°C° 0 mm 5 mps 750 mmHg 73%
    12:00 +6°C° 0 mm 5 mps 750 mmHg 70%
    13:00 +6°C° 0 mm 5 mps 751 mmHg 67%
    14:00 +6°C° 0 mm 5 mps 751 mmHg 64%
    15:00 +5°C° 0 mm 4 mps 752 mmHg 63%
    16:00 +5°C° 0 mm 4 mps 752 mmHg 62%
    17:00 +5°C° 0 mm 4 mps 753 mmHg 61%
    18:00 +4°C° 0 mm 3 mps 754 mmHg 63%
    19:00 +3°C° 0 mm 3 mps 755 mmHg 66%
    20:00 +3°C° 0 mm 2 mps 755 mmHg 68%
    21:00 +2°C° 0 mm 2 mps 756 mmHg 71%
    22:00 +1°C° 0 mm 2 mps 756 mmHg 74%
    23:00 +1°C° 0 mm 1 mps 757 mmHg 77%
    Show more